Location: *
(44.1392°N, 4.8079°E)
Time: 14:27:25
(UTC+00:00)

Lacrosse 5 rocket - Pass Details

Date: 20 October 2021
Orbit: 459 x 633 km, 57.0° (Epoch: 04 December)

Event Time Altitude Azimuth Distance (km) Brightness Sun altitude
Exits shadow 03:39:43 52° 38° (NE) 717 2.0 -26.1°
Drops below altitude 10° 03:43:08 10° 47° (NE) 1,931 4.8 -25.5°
Sets 03:45:29 0° 48° (NE) 2,862 5.9 -25.1°
